[[{"header":{"parameterUnit":"m.s-1","parameterCategory":1,"la1":30.2991,"la2":30.254,"lo1":-89.0895,"lo2":-89.0444,"dy":0.0017,"dx":0.0017,"nx":28,"ny":28,"refTime":"2023-07-26T21:00:00:Z","depth":0,"parameterNumber":2,"parameterNumberName":"U-component_of_WINDS"},"data":[0,0,0,0,0,0,0,0,0,0,0,0,0,0,0,0,0,0,0,0,0,0,0,0,0,0,0,0,0,0,0,0,0,0,0,0,0,0,0,0,0,0,0,0,0,0,0,0,0,0,0,0,0,0,0,0,0,0,-1.3756,-1.3755,0,-1.363,-1.3628,-1.3627,-1.3574,-1.3574,-1.3574,-1.3575,-1.344,-1.3436,-1.3432,0,0,0,0,0,0,0,0,0,0,0,0,0,-1.395,-1.3947,-1.3757,-1.3755,-1.3753,-1.363,-1.3628,-1.3626,-1.3574,-1.3574,-1.3574,-1.3575,-1.3441,-1.3437,-1.3432,0,0,0,0,0,0,0,0,0,0,0,0,0,-1.3849,-1.3946,-1.3757,-1.3712,-1.3707,-1.363,-1.3628,-1.3626,-1.3574,-1.3574,-1.3574,-1.3575,-1.3443,-1.3437,-1.3431,-1.3388,0,0,-1.3414,-1.3411,0,0,0,0,0,0,0,0,-1.3855,-1.3842,-1.372,-1.3715,-1.3709,-1.3618,-1.3647,-1.3546,-1.3574,-1.3624,-1.3575,-1.3575,-1.3499,-1.3488,-1.3463,-1.3381,-1.3376,-1.3413,-1.341,-1.3407,-1.3406,0,0,0,0,0,0,0,-1.3862,-1.3847,-1.3706,-1.3719,-1.3712,-1.3698,-1.3684,-1.3628,-1.356,-1.362,-1.3616,-1.3602,-1.3495,-1.3469,-1.346,-1.3374,-1.3413,-1.3408,-1.3405,-1.3403,-1.3251,-1.325,0,0,0,0,0,0,-1.3877,-1.3853,-1.371,-1.3702,-1.3785,-1.3694,-1.3678,-1.3647,-1.3561,-1.3548,-1.3601,-1.36,-1.3479,-1.3467,-1.3455,-1.3398,-1.3407,-1.3402,-1.3399,-1.3251,-1.3251,-1.325,0,0,0,0,0,0,-1.3881,-1.3865,-1.3715,-1.3777,-1.3757,-1.369,-1.3655,-1.3644,-1.3618,-1.3547,-1.3535,-1.3587,-1.3478,-1.3463,-1.3405,-1.3393,-1.3399,-1.3394,-1.3252,-1.3251,-1.325,-1.3285,0,0,0,0,0,0,-1.3887,-1.3866,-1.385,-1.3777,-1.3754,-1.3669,-1.3654,-1.3641,-1.3608,-1.3605,-1.353,-1.3518,-1.3478,-1.3414,-1.34,-1.3385,-1.339,-1.3253,-1.3252,-1.3251,-1.3285,-1.3286,-1.3287,0,0,0,0,0,-1.3894,-1.3863,-1.3849,-1.3832,-1.3731,-1.3668,-1.3655,-1.361,-1.3608,-1.359,-1.3545,-1.352,-1.3397,-1.3409,-1.3392,-1.3376,-1.3253,-1.3252,-1.3251,-1.3285,-1.3286,-1.3287,0,0,0,0,0,0,-1.3934,-1.3853,-1.3836,-1.3781,-1.3732,-1.366,-1.3635,-1.3613,-1.3562,-1.3561,-1.3506,-1.349,-1.3437,-1.34,-1.3415,-1.3329,-1.3323,-1.3319,-1.3355,-1.3355,-1.3356,-1.3365,-1.3385,0,0,0,0,0,-1.3937,-1.3894,-1.3824,-1.3782,-1.3759,-1.3702,-1.3673,-1.3643,-1.3589,-1.3568,-1.3519,-1.3467,-1.3416,-1.3384,-1.3333,-1.328,-1.3263,-1.3261,-1.3262,-1.3263,-1.3259,-1.3228,-1.3226,-1.3246,-1.3246,-1.3246,0,0,-1.3941,-1.3892,-1.3867,-1.3789,-1.3748,-1.3704,-1.3685,-1.3638,-1.3604,-1.356,-1.3503,-1.3466,-1.3404,-1.3349,-1.3322,-1.3317,-1.325,-1.3261,-1.3262,-1.3257,-1.3227,-1.3225,-1.3223,-1.3245,-1.3245,-1.3245,0,0,-1.3926,-1.3885,-1.3846,-1.3806,-1.3744,-1.3707,-1.3698,-1.3629,-1.3603,-1.3546,-1.3512,-1.3471,-1.3385,-1.3343,-1.331,-1.3283,-1.3259,-1.3268,-1.3272,-1.3243,-1.3241,-1.324,-1.323,-1.3227,-1.3265,-1.3265,-1.3265,0,-1.3939,-1.3872,-1.3828,-1.3784,-1.3751,-1.3712,-1.3672,-1.3634,-1.3559,-1.3537,-1.3533,-1.3426,-1.3381,-1.3316,-1.331,-1.3285,-1.3272,-1.3276,-1.3245,-1.3243,-1.3241,-1.3231,-1.3227,-1.3267,-1.3266,-1.3266,-1.3266,0,-1.3891,-1.3845,-1.3821,-1.3752,-1.3716,-1.3674,-1.3623,-1.3592,-1.3566,-1.3529,-1.3472,-1.3418,-1.3357,-1.3339,-1.3312,-1.327,-1.3269,-1.3256,-1.3249,-1.3242,-1.3231,-1.3227,-1.3269,-1.3268,-1.3268,-1.3267,0,0,-1.3895,-1.3805,-1.3796,-1.3765,-1.3696,-1.3659,-1.3616,-1.3558,-1.3532,-1.3482,-1.3444,-1.3374,-1.3362,-1.3325,-1.3294,-1.3269,-1.3251,-1.3259,-1.3257,-1.3259,-1.3202,-1.3211,-1.3208,-1.3236,-1.3235,-1.3234,-1.3207,0,-1.387,-1.3792,-1.3753,-1.3691,-1.3649,-1.3613,-1.3575,-1.3528,-1.3493,-1.3451,-1.3412,-1.3363,-1.3351,-1.3329,-1.3303,-1.3259,-1.3239,-1.3261,-1.3198,-1.3197,-1.3214,-1.3202,-1.3211,-1.3188,-1.3202,-1.3202,-1.3201,0,-1.383,-1.3784,-1.3719,-1.3657,-1.3637,-1.3604,-1.3549,-1.3509,-1.3456,-1.3432,-1.3393,-1.3363,-1.3315,-1.3313,-1.3247,-1.3262,-1.3235,-1.321,-1.3208,-1.3199,-1.3198,-1.3192,-1.318,-1.3176,-1.3194,-1.3195,-1.3195,0,-1.384,-1.376,-1.3711,-1.3686,-1.3612,-1.359,-1.3558,-1.3505,-1.3473,-1.3425,-1.3403,-1.335,-1.332,-1.3278,-1.3234,-1.3237,-1.3172,-1.3166,-1.3151,-1.3152,-1.3137,-1.3138,-1.3119,-1.3121,-1.3122,-1.3122,-1.3122,0,-1.3816,-1.3777,-1.3715,-1.3685,-1.3641,-1.3596,-1.3554,-1.3519,-1.3473,-1.3434,-1.34,-1.3364,-1.3309,-1.3267,-1.3232,-1.3183,-1.317,-1.3149,-1.314,-1.3151,-1.3154,-1.3131,-1.3131,-1.3121,-1.3121,-1.3121,-1.3121,0,-1.3817,-1.3774,-1.3719,-1.3655,-1.3638,-1.3608,-1.3553,-1.3522,-1.3487,-1.3439,-1.3425,-1.3369,-1.3318,-1.3271,-1.3201,-1.3178,-1.3128,-1.3117,-1.3147,-1.3142,-1.3128,-1.313,-1.3093,-1.3086,-1.3094,-1.3094,-1.3094,0,-1.3804,-1.3774,-1.3708,-1.3681,-1.3651,-1.3607,-1.3576,-1.3531,-1.3499,-1.3438,-1.3414,-1.3361,-1.3316,-1.3236,-1.3188,-1.3136,-1.3122,-1.3113,-1.3114,-1.3127,-1.3121,-1.3123,-1.312,-1.3113,-1.3113,-1.3114,-1.3114,0,-1.3785,-1.3766,-1.3723,-1.3673,-1.3637,-1.3594,-1.3551,-1.353,-1.3478,-1.3444,-1.3392,-1.3358,-1.3289,-1.3236,-1.3179,-1.3145,-1.312,-1.3114,-1.3108,-1.3118,-1.3137,-1.3126,-1.3148,-1.3115,-1.3115,-1.3114,-1.3114,-1.3114,-1.3778,-1.3751,-1.3701,-1.3654,-1.3617,-1.3578,-1.3547,-1.3509,-1.3465,-1.3407,-1.3384,-1.3331,-1.328,-1.3201,-1.3167,-1.3125,-1.312,-1.311,-1.3107,-1.3106,-1.3108,-1.3145,-1.3114,-1.3114,-1.3114,-1.3114,-1.3114,0,-1.3758,-1.3725,-1.3682,-1.3624,-1.3587,-1.357,-1.3522,-1.3492,-1.3447,-1.3402,-1.3359,-1.3301,-1.325,-1.32,-1.3147,-1.3123,-1.311,-1.311,-1.3111,-1.3103,-1.3116,-1.3127,-1.3121,-1.3121,-1.3121,-1.3121,-1.3121,-1.3121,-1.3742,-1.3695,-1.367,-1.3605,-1.3571,-1.3521,-1.3495,-1.3459,-1.3423,-1.336,-1.3318,-1.3287,-1.3239,-1.3183,-1.3136,-1.3122,-1.3104,-1.3107,-1.309,-1.3102,-1.3102,-1.3102,-1.3112,-1.3104,-1.3104,-1.3081,-1.3081,-1.3081]},{"header":{"parameterUnit":"m.s-1","parameterCategory":1,"la1":30.2991,"la2":30.254,"lo1":-89.0895,"lo2":-89.0444,"dy":0.0017,"dx":0.0017,"nx":28,"ny":28,"refTime":"2023-07-26T21:00:00:Z","depth":0,"parameterNumber":3,"parameterNumberName":"V-component_of_WINDS"},"data":[0,0,0,0,0,0,0,0,0,0,0,0,0,0,0,0,0,0,0,0,0,0,0,0,0,0,0,0,0,0,0,0,0,0,0,0,0,0,0,0,0,0,0,0,0,0,0,0,0,0,0,0,0,0,0,0,0,0,2.4977,2.4978,0,2.5044,2.5045,2.5046,2.51,2.5101,2.5101,2.5102,2.5167,2.5169,2.517,0,0,0,0,0,0,0,0,0,0,0,0,0,2.4894,2.4895,2.4977,2.4978,2.4979,2.5044,2.5045,2.5046,2.51,2.5101,2.5101,2.5102,2.5167,2.5168,2.517,0,0,0,0,0,0,0,0,0,0,0,0,0,2.4942,2.4895,2.4977,2.5014,2.5018,2.5044,2.5045,2.5046,2.51,2.5101,2.5102,2.5102,2.5167,2.5168,2.517,2.5164,0,0,2.5176,2.5176,0,0,0,0,0,0,0,0,2.4939,2.4945,2.5007,2.5011,2.5016,2.5065,2.504,2.5085,2.51,2.5068,2.5102,2.5103,2.5132,2.5137,2.5148,2.5167,2.517,2.5176,2.5177,2.5178,2.5178,0,0,0,0,0,0,0,2.4936,2.4942,2.5003,2.5008,2.5013,2.5026,2.5034,2.5049,2.5095,2.5071,2.5075,2.5083,2.5135,2.5146,2.515,2.5171,2.5176,2.5177,2.5178,2.5179,2.5189,2.5188,0,0,0,0,0,0,2.4927,2.4939,2.5001,2.5005,2.4979,2.5027,2.5036,2.5048,2.5095,2.5103,2.5082,2.5085,2.5142,2.5147,2.5152,2.5148,2.5178,2.5179,2.518,2.519,2.5189,2.5188,0,0,0,0,0,0,2.4925,2.4932,2.4999,2.4974,2.4983,2.5027,2.5041,2.5049,2.506,2.5103,2.5111,2.5085,2.5143,2.5149,2.5161,2.5151,2.518,2.5182,2.5191,2.519,2.5188,2.514,0,0,0,0,0,0,2.4922,2.4931,2.493,2.4973,2.4984,2.5007,2.504,2.505,2.5063,2.5068,2.5108,2.5115,2.5144,2.5158,2.5163,2.5154,2.5183,2.5192,2.519,2.5189,2.5143,2.5137,2.5132,0,0,0,0,0,2.4919,2.4913,2.4929,2.4936,2.4983,2.5006,2.5012,2.5047,2.5062,2.5061,2.5089,2.5114,2.5152,2.5159,2.5165,2.5156,2.5193,2.5191,2.5189,2.5145,2.5138,2.5133,0,0,0,0,0,0,2.4866,2.4919,2.4938,2.4945,2.4971,2.5015,2.5015,2.5039,2.506,2.5063,2.5104,2.5113,2.512,2.5139,2.5146,2.5153,2.5175,2.5175,2.514,2.5134,2.5129,2.5124,2.5185,0,0,0,0,0,2.4855,2.487,2.4915,2.4917,2.4929,2.497,2.4981,2.5005,2.5033,2.5044,2.5072,2.5097,2.5115,2.5126,2.5144,2.5146,2.5155,2.5143,2.5138,2.5134,2.5132,2.5135,2.513,2.5182,2.5182,2.5182,0,0,2.4832,2.4863,2.487,2.4907,2.493,2.4944,2.4978,2.4991,2.5002,2.5046,2.5058,2.508,2.5111,2.5117,2.5122,2.5134,2.512,2.5132,2.5128,2.5129,2.5132,2.5127,2.5123,2.5181,2.5181,2.5181,0,0,2.4798,2.4823,2.4828,2.485,2.4885,2.4912,2.4913,2.4954,2.497,2.4984,2.5018,2.503,2.506,2.508,2.5095,2.5069,2.5093,2.5074,2.5047,2.5049,2.5045,2.5041,2.5032,2.5028,2.5073,2.5073,2.5072,0,2.4765,2.4788,2.4827,2.4838,2.4853,2.4895,2.49,2.4919,2.4957,2.4967,2.498,2.5019,2.5042,2.5054,2.5048,2.5059,2.506,2.5069,2.5043,2.5039,2.5037,2.5028,2.5024,2.507,2.507,2.5071,2.5071,0,2.4746,2.4761,2.476,2.4797,2.4813,2.482,2.486,2.4871,2.4894,2.4919,2.4933,2.4963,2.4989,2.4993,2.5016,2.5009,2.5015,2.5035,2.5058,2.5029,2.5021,2.5018,2.5066,2.5067,2.5068,2.5069,0,0,2.4678,2.4738,2.4737,2.4754,2.4796,2.4808,2.4817,2.4844,2.4852,2.4877,2.4885,2.491,2.4929,2.4945,2.4971,2.4972,2.495,2.4992,2.4994,2.4983,2.4943,2.4927,2.4923,2.4966,2.4966,2.4966,2.494,0,2.465,2.467,2.4706,2.4714,2.4729,2.4769,2.4778,2.4804,2.4828,2.4843,2.487,2.4886,2.4911,2.4921,2.4924,2.4952,2.4942,2.4954,2.4974,2.4974,2.4964,2.4919,2.4902,2.4877,2.4938,2.4937,2.4937,0,2.4619,2.4643,2.4654,2.4695,2.4702,2.4709,2.4736,2.475,2.4781,2.4798,2.4817,2.4845,2.4857,2.4879,2.4895,2.4902,2.4912,2.4927,2.4927,2.4929,2.4953,2.4919,2.4869,2.4865,2.4933,2.4933,2.4933,0,2.4568,2.4603,2.4614,2.4628,2.4676,2.468,2.47,2.4731,2.4745,2.4768,2.4778,2.4801,2.4814,2.4832,2.4866,2.4879,2.4878,2.4903,2.4892,2.4891,2.4889,2.4889,2.4839,2.4897,2.4897,2.4897,2.4897,0,2.4532,2.4537,2.4592,2.4598,2.4604,2.4645,2.465,2.4674,2.4701,2.4713,2.4749,2.4759,2.4803,2.4818,2.4845,2.4854,2.4859,2.4873,2.488,2.487,2.4868,2.4876,2.4878,2.4896,2.4896,2.4897,2.4897,0,2.4476,2.4513,2.4527,2.4572,2.4584,2.4586,2.4625,2.4632,2.4659,2.4673,2.4679,2.472,2.474,2.4776,2.4804,2.4822,2.4826,2.4838,2.4815,2.4819,2.4807,2.4807,2.476,2.4756,2.4817,2.4816,2.4815,0,2.445,2.4455,2.4501,2.4511,2.4531,2.4547,2.4562,2.4602,2.4616,2.4651,2.4654,2.4677,2.4696,2.4725,2.4758,2.478,2.4793,2.4775,2.4796,2.4786,2.4792,2.4791,2.4791,2.4769,2.4769,2.4768,2.4767,0,2.44,2.4418,2.4438,2.4465,2.4481,2.4504,2.4528,2.4535,2.4581,2.4594,2.4614,2.463,2.466,2.4682,2.4709,2.4729,2.4755,2.4761,2.4759,2.4748,2.4735,2.4741,2.4801,2.4761,2.4762,2.4762,2.4763,2.4763,2.4358,2.4364,2.4397,2.4418,2.4441,2.4463,2.4473,2.4502,2.452,2.4549,2.4571,2.459,2.4621,2.466,2.4679,2.4694,2.4706,2.4704,2.4704,2.4702,2.4698,2.4733,2.4699,2.4699,2.4699,2.47,2.47,0,2.4309,2.4333,2.4352,2.4386,2.4402,2.4427,2.4456,2.4467,2.4484,2.4511,2.453,2.4554,2.4575,2.461,2.4634,2.4639,2.4652,2.4644,2.4643,2.4648,2.4686,2.4684,2.4633,2.4633,2.4633,2.4633,2.4633,2.4633,2.4286,2.4297,2.432,2.4343,2.4367,2.4387,2.4401,2.4421,2.4443,2.4468,2.4487,2.451,2.454,2.4566,2.4587,2.4596,2.4603,2.4591,2.4604,2.4639,2.4645,2.4651,2.465,2.4592,2.4592,2.4565,2.4565,2.4565]}]]